Location: Ca�n Batista
(41.4099°N, 1.7752°E)
Time: 13:19:56
(UTC+00:00)

Cosmos 2278 Rocket - Pass Details

Date: 03 March 2021
Orbit: 842 x 845 km, 71.0° (Epoch: 21 April)

Event Time Altitude Azimuth Distance (km) Brightness Sun altitude
Rises 20:24:18 0° 340° (NNW) 3,412 5.9 -30.1°
Reaches altitude 10° 20:26:50 10° 345° (NNW) 2,473 5.0 -30.5°
Enters shadow 20:30:04 33° 3° (N) 1,392 3.4 -31.1°
